Location: Dal�� Lhota
(48.7500°N, 14.0167°E)
Time: 10:27:40
(UTC+00:00)

Vanguard 3 - Visible Passes

Search period start: 03 August 2021 00:00
Search period end: 13 August 2021 00:00
Orbit: 508 x 3261 km, 33.4° (Epoch: 02 August)

Date Brightness Start Highest point End Pass type
(mag) Time Alt. Az. Time Alt. Az. Time Alt. Az.
03 Aug 10.4 20:01:52 10° W 20:18:16 43° SSW 20:32:13 18° SE visible
03 Aug 10.6 22:17:45 10° W 22:31:56 26° SW 22:36:41 23° SSW visible
04 Aug 10.4 18:46:39 10° WSW 19:01:58 47° S 19:20:09 10° ESE visible
04 Aug 10.5 21:00:41 10° W 21:16:22 34° SSW 21:25:51 23° SSE visible
04 Aug 11.0 23:20:20 10° WSW 23:28:56 15° SW 23:30:20 14° SW visible
05 Aug 10.5 19:44:47 10° W 20:00:20 41° SSW 20:15:05 16° SE visible
05 Aug 10.7 22:00:40 10° W 22:13:57 24° SW 22:19:33 21° SSW visible
06 Aug 10.7 20:43:37 10° W 20:58:24 32° SSW 21:08:50 20° S visible
06 Aug 11.1 23:04:28 10° WSW 23:11:00 13° SW 23:13:19 12° SW visible
07 Aug 10.5 19:27:53 10° W 19:42:27 39° SSW 19:58:10 13° SE visible
07 Aug 10.9 21:43:53 10° W 21:56:00 21° SW 22:02:39 17° SSW visible
08 Aug 10.8 20:26:47 10° W 20:40:29 29° SSW 20:52:02 16° S visible
08 Aug 11.2 22:51:02 10° WSW 22:53:07 10° SW 22:55:12 10° SW visible
09 Aug 10.6 19:11:09 10° W 19:24:40 36° SSW 19:41:19 10° SE visible
09 Aug 11.0 21:27:27 10° WSW 21:38:06 18° SW 21:45:59 14° SSW visible
10 Aug 10.9 20:10:10 10° W 20:22:39 26° SSW 20:35:30 13° S visible
11 Aug 10.7 18:54:35 10° WSW 19:06:58 33° SSW 19:22:49 10° SSE visible
11 Aug 11.2 21:11:34 10° WSW 21:20:17 16° SW 21:29:35 10° SSW visible
12 Aug 11.0 19:53:50 10° WSW 20:04:56 23° SSW 20:18:02 10° S visible
